This is the latest recevied weather packets stored in our database for station/object KC3WWU. If no packets are shown the sender has not sent any weather packets the latest 10 day(s).
| Time | Temp. | Humidity | Pressure | Rain* | Wind** | Luminosity | Snow |
|---|---|---|---|---|---|---|---|
| 1778085926 | 11.67° C | 99% | 1006.1 hPa | 0 mm | - | 93 W/m² | - |
| 1778085624 | 11.67° C | 99% | 1006 hPa | 0 mm | - | 81 W/m² | - |
| 1778085320 | 11.67° C | 99% | 1006 hPa | 0 mm | - | 102 W/m² | - |
| 1778085016 | 11.67° C | 99% | 1006.1 hPa | 0 mm | - | 116 W/m² | - |
| 1778084712 | 11.67° C | 99% | 1006.1 hPa | 0 mm | - | 89 W/m² | - |
| 1778084409 | 11.67° C | 99% | 1005.9 hPa | 0 mm | - | 73 W/m² | - |
| 1778084107 | 12.22° C | 99% | 1005.9 hPa | 0 mm | - | 65 W/m² | - |
| 1778083804 | 12.78° C | 99% | 1005.8 hPa | 0 mm | - | 93 W/m² | - |
| 1778083501 | 12.78° C | 99% | 1005.8 hPa | 0 mm | - | 126 W/m² | - |
| 1778083198 | 13.33° C | 99% | 1005.5 hPa | 0 mm | - | 66 W/m² | - |
| 1778082896 | 13.33° C | 99% | 1005.6 hPa | 0 mm | - | 66 W/m² | - |
| 1778081783 | 13.33° C | 99% | 1005.2 hPa | 0 mm | - | 70 W/m² | - |
| 1778081480 | 13.33° C | 99% | 1005.1 hPa | 0 mm | - | 60 W/m² | - |
| 1778081177 | 13.89° C | 99% | 1005.1 hPa | 0 mm | - | 78 W/m² | - |
| 1778080875 | 13.89° C | 99% | 1005 hPa | 0 mm | - | 148 W/m² | - |
| 1778080573 | 13.33° C | 99% | 1004.9 hPa | 0 mm | - | 112 W/m² | - |
| 1778080269 | 13.33° C | 99% | 1004.8 hPa | 0 mm | - | 108 W/m² | - |
| 1778079966 | 13.33° C | 99% | 1004.9 hPa | 0 mm | - | 90 W/m² | - |
| 1778079663 | 13.33° C | 99% | 1004.7 hPa | 0 mm | - | 56 W/m² | - |
| 1778079360 | 13.33° C | 99% | 1004.7 hPa | 0 mm | - | 63 W/m² | - |
| 1778079057 | 13.33° C | 99% | 1004.5 hPa | 0 mm | - | 43 W/m² | - |
| 1778078754 | 13.33° C | 99% | 1004.9 hPa | 0 mm | - | 59 W/m² | - |
| 1778078451 | 13.33° C | 99% | 1004.7 hPa | 0 mm | - | 45 W/m² | - |
| 1778078149 | 13.33° C | 99% | 1004.9 hPa | 0 mm | - | 55 W/m² | - |
| 1778077847 | 13.33° C | 99% | 1004.7 hPa | 0 mm | - | 39 W/m² | - |
* Rain latest hour (hover to see other rain measurements)
** Current wind speed in m/s (hover to see current wind gust speed)